CCA1097 ZBAA-RCKH

Flight info

Callsign CCA1097
Flight time 3h 14m
Altitude 35100
Route ELKUR2G ELKUR W40 YQG W142 DALIM A593 PK W116 JTN G327 BOLEX B591 KASKA/N0501F351 L2 BERBA B591 APU W4 PIDGY T13 LUGIA LUGIA2B
Aircraft B77W/H-SDE1E2E3FGHIJ2J3J4J5M1RWXY/LB1D1

Departure

Time 2026-04-16 12:18
Airport Beijing Capital International Airport (ZBAA)

Arrival

Time 2026-04-16 15:32
Airport Kaohsiung International Airport (RCKH)
Time Latitude Longitude Altitude Speed Heading
2026-04-16 11:57 40.07013 116.60305 129 ft 0 kts 263°
2026-04-16 12:07 40.07016 116.60333 124 ft 4 kts 263°
2026-04-16 12:08 40.07019 116.60364 124 ft 3 kts 263°
2026-04-16 12:08 40.07027 116.60391 122 ft 4 kts 207°
2026-04-16 12:08 40.07051 116.60395 124 ft 4 kts 172°
2026-04-16 12:08 40.07063 116.60393 123 ft 0 kts 173°
2026-04-16 12:12 40.07058 116.60394 123 ft 2 kts 173°
2026-04-16 12:12 40.07040 116.60397 123 ft 4 kts 173°
2026-04-16 12:12 40.07008 116.60402 126 ft 6 kts 173°
2026-04-16 12:13 40.06964 116.60409 124 ft 7 kts 173°
2026-04-16 12:13 40.06909 116.60402 124 ft 9 kts 207°
2026-04-16 12:13 40.06879 116.60333 123 ft 10 kts 255°
2026-04-16 12:13 40.06837 116.60188 126 ft 22 kts 214°
2026-04-16 12:14 40.06689 116.60186 126 ft 22 kts 173°
2026-04-16 12:14 40.06540 116.60210 125 ft 22 kts 173°
2026-04-16 12:14 40.06390 116.60234 124 ft 22 kts 173°
2026-04-16 12:14 40.06263 116.60207 125 ft 18 kts 244°
2026-04-16 12:15 40.06237 116.60154 123 ft 5 kts 201°
2026-04-16 12:15 40.06181 116.60153 126 ft 15 kts 174°
2026-04-16 12:15 40.06030 116.60175 124 ft 23 kts 172°
2026-04-16 12:15 40.05868 116.60200 126 ft 23 kts 174°
2026-04-16 12:16 40.05708 116.60226 126 ft 23 kts 173°
2026-04-16 12:16 40.05567 116.60228 126 ft 10 kts 213°
2026-04-16 12:16 40.05541 116.60143 124 ft 11 kts 267°
2026-04-16 12:16 40.05564 116.60050 124 ft 11 kts 297°
2026-04-16 12:17 40.05615 116.60009 124 ft 0 kts 347°
2026-04-16 12:17 40.05618 116.60008 124 ft 1 kts 347°
2026-04-16 12:17 40.05632 116.60004 124 ft 7 kts 348°
2026-04-16 12:17 40.05901 116.59951 124 ft 93 kts 353°
2026-04-16 12:18 40.06969 116.59786 224 ft 203 kts 353°
2026-04-16 12:18 40.08398 116.59588 1897 ft 209 kts 351°
2026-04-16 12:18 40.09934 116.59346 3316 ft 239 kts 351°
2026-04-16 12:18 40.11502 116.59098 3853 ft 215 kts 351°
2026-04-16 12:19 40.12946 116.58870 4031 ft 205 kts 351°
2026-04-16 12:19 40.14333 116.58649 4013 ft 197 kts 351°
2026-04-16 12:19 40.15685 116.58433 4013 ft 194 kts 351°
2026-04-16 12:19 40.17026 116.58219 4025 ft 195 kts 351°
2026-04-16 12:20 40.18373 116.58004 4034 ft 195 kts 351°
2026-04-16 12:20 40.19725 116.57788 4033 ft 196 kts 351°
2026-04-16 12:20 40.21087 116.57571 4028 ft 197 kts 351°
2026-04-16 12:20 40.22445 116.57354 4024 ft 197 kts 351°
2026-04-16 12:21 40.23785 116.57141 4016 ft 197 kts 351°
2026-04-16 12:21 40.25094 116.56760 3989 ft 189 kts 326°
2026-04-16 12:21 40.26072 116.55683 4039 ft 186 kts 318°
2026-04-16 12:21 40.27060 116.54556 4032 ft 190 kts 319°
2026-04-16 12:22 40.28053 116.53423 4022 ft 189 kts 319°
2026-04-16 12:22 40.29036 116.52294 4015 ft 187 kts 319°
2026-04-16 12:22 40.30009 116.51172 4225 ft 186 kts 319°
2026-04-16 12:22 40.30969 116.50060 5081 ft 183 kts 318°
2026-04-16 12:23 40.31640 116.48650 5808 ft 190 kts 279°
2026-04-16 12:23 40.31650 116.46918 6602 ft 191 kts 272°
2026-04-16 12:23 40.31651 116.45181 7354 ft 191 kts 274°
2026-04-16 12:23 40.31652 116.43446 8071 ft 191 kts 274°
2026-04-16 12:24 40.31654 116.41695 8711 ft 193 kts 274°
2026-04-16 12:24 40.31655 116.39932 9453 ft 193 kts 274°
2026-04-16 12:24 40.31657 116.38163 10169 ft 195 kts 274°
2026-04-16 12:24 40.31657 116.36385 10838 ft 196 kts 274°
2026-04-16 12:25 40.31657 116.34596 11530 ft 197 kts 274°
2026-04-16 12:25 40.31657 116.32802 12213 ft 198 kts 274°
2026-04-16 12:25 40.31657 116.30994 12855 ft 200 kts 274°
2026-04-16 12:25 40.31655 116.29154 13489 ft 204 kts 273°
2026-04-16 12:26 40.31655 116.27278 14067 ft 209 kts 273°
2026-04-16 12:26 40.31654 116.25330 14557 ft 217 kts 272°
2026-04-16 12:26 40.31349 116.23397 14776 ft 228 kts 243°
2026-04-16 12:26 40.30244 116.21840 14758 ft 238 kts 214°
2026-04-16 12:27 40.28758 116.20810 14821 ft 246 kts 212°
2026-04-16 12:27 40.27711 116.20093 14828 ft 267 kts 212°
2026-04-16 12:27 40.25324 116.18453 14881 ft 318 kts 211°
2026-04-16 12:27 40.23240 116.17029 14885 ft 356 kts 211°
2026-04-16 12:28 40.20948 116.15470 14870 ft 380 kts 210°
2026-04-16 12:28 40.19385 116.14412 14833 ft 383 kts 210°
2026-04-16 12:28 40.17011 116.12807 14800 ft 384 kts 210°
2026-04-16 12:28 40.13849 116.10663 14804 ft 382 kts 211°
2026-04-16 12:29 40.12289 116.09602 14789 ft 382 kts 211°
2026-04-16 12:29 40.09931 116.07994 14796 ft 382 kts 211°
2026-04-16 12:29 40.07570 116.06386 14797 ft 382 kts 211°
2026-04-16 12:29 40.05207 116.04783 14803 ft 380 kts 209°
2026-04-16 12:30 40.02698 116.03719 14785 ft 386 kts 189°
2026-04-16 12:30 40.00002 116.03900 14968 ft 393 kts 168°
2026-04-16 12:30 39.97402 116.05064 15400 ft 397 kts 161°
2026-04-16 12:30 39.94826 116.06370 15792 ft 396 kts 161°
2026-04-16 12:31 39.92267 116.07663 16192 ft 393 kts 161°
2026-04-16 12:31 39.89714 116.08935 16590 ft 392 kts 162°
2026-04-16 12:31 39.87169 116.10183 17006 ft 391 kts 162°
2026-04-16 12:31 39.84616 116.11423 17423 ft 394 kts 162°
2026-04-16 12:32 39.81979 116.12699 17900 ft 413 kts 162°
2026-04-16 12:32 39.79349 116.14269 18344 ft 428 kts 154°
2026-04-16 12:32 39.76745 116.16257 18731 ft 431 kts 151°
2026-04-16 12:32 39.74211 116.18356 19093 ft 430 kts 150°
2026-04-16 12:33 39.71699 116.20447 19477 ft 429 kts 151°
2026-04-16 12:33 39.69230 116.22463 19657 ft 431 kts 152°
2026-04-16 12:33 39.66709 116.24475 19685 ft 429 kts 152°
2026-04-16 12:33 39.64158 116.26477 19679 ft 428 kts 152°
2026-04-16 12:34 39.61560 116.28495 19713 ft 447 kts 152°
2026-04-16 12:34 39.58842 116.30595 19709 ft 458 kts 152°
2026-04-16 12:34 39.56096 116.32723 19716 ft 461 kts 152°
2026-04-16 12:34 39.53325 116.34873 20399 ft 466 kts 152°
2026-04-16 12:35 39.50537 116.37034 21260 ft 468 kts 153°
2026-04-16 12:35 39.47721 116.39177 22058 ft 470 kts 155°
2026-04-16 12:35 39.44699 116.40761 22706 ft 469 kts 168°
2026-04-16 12:35 39.41521 116.41771 23395 ft 472 kts 172°
2026-04-16 12:36 39.38301 116.42694 24010 ft 476 kts 172°
2026-04-16 12:36 39.35054 116.43633 24635 ft 479 kts 171°
2026-04-16 12:36 39.31799 116.44611 25266 ft 481 kts 171°
2026-04-16 12:36 39.28547 116.45628 25951 ft 480 kts 170°
2026-04-16 12:37 39.25310 116.46669 26801 ft 476 kts 170°
2026-04-16 12:37 39.22122 116.47710 27739 ft 470 kts 169°
2026-04-16 12:37 39.18975 116.48742 28697 ft 465 kts 169°
2026-04-16 12:37 39.15848 116.49766 29503 ft 463 kts 169°
2026-04-16 12:38 39.09624 116.51792 29590 ft 460 kts 169°
2026-04-16 12:38 39.03438 116.53796 29570 ft 462 kts 169°
2026-04-16 12:39 38.97174 116.55821 29590 ft 464 kts 169°
2026-04-16 12:39 38.90910 116.57846 29578 ft 465 kts 169°
2026-04-16 12:40 38.84645 116.59866 29583 ft 464 kts 169°
2026-04-16 12:40 38.78393 116.61879 29577 ft 463 kts 169°
2026-04-16 12:41 38.72142 116.63888 29586 ft 463 kts 169°
2026-04-16 12:41 38.65867 116.65899 30307 ft 465 kts 170°
2026-04-16 12:42 38.62712 116.66555 30974 ft 455 kts 183°
2026-04-16 12:42 38.59589 116.66243 31572 ft 448 kts 191°
2026-04-16 12:42 38.56502 116.65771 32194 ft 446 kts 191°
2026-04-16 12:42 38.53422 116.65333 32843 ft 445 kts 190°
2026-04-16 12:43 38.50348 116.64938 33459 ft 443 kts 190°
2026-04-16 12:43 38.47281 116.64572 34041 ft 442 kts 190°
2026-04-16 12:43 38.44213 116.64221 34502 ft 442 kts 190°
2026-04-16 12:43 38.41152 116.63875 34940 ft 442 kts 190°
2026-04-16 12:44 38.38074 116.63524 35089 ft 447 kts 191°
2026-04-16 12:44 38.34965 116.63168 35081 ft 449 kts 191°
2026-04-16 12:44 38.28716 116.63254 35079 ft 451 kts 179°
2026-04-16 12:45 38.22521 116.64830 35093 ft 459 kts 170°
2026-04-16 12:45 38.16432 116.67176 35071 ft 460 kts 170°
2026-04-16 12:46 38.10280 116.69473 35087 ft 461 kts 171°
2026-04-16 12:46 38.04122 116.71803 35093 ft 463 kts 170°
2026-04-16 12:47 37.97943 116.74173 35096 ft 465 kts 170°
2026-04-16 12:47 37.91748 116.76542 35093 ft 465 kts 170°
2026-04-16 12:48 37.85547 116.78903 35090 ft 465 kts 170°
2026-04-16 12:48 37.79340 116.81260 35092 ft 465 kts 170°
2026-04-16 12:49 37.73146 116.83608 35093 ft 465 kts 170°
2026-04-16 12:49 37.66953 116.85952 35093 ft 464 kts 171°
2026-04-16 12:50 37.60767 116.88289 35088 ft 463 kts 171°
2026-04-16 12:50 37.54597 116.90614 35097 ft 463 kts 171°
2026-04-16 12:51 37.48429 116.92936 35107 ft 462 kts 171°
2026-04-16 12:51 37.42274 116.95248 35092 ft 461 kts 171°
2026-04-16 12:52 37.36123 116.97556 35097 ft 461 kts 171°
2026-04-16 12:52 37.29967 116.99866 35097 ft 462 kts 171°
2026-04-16 12:53 37.23911 117.02596 35073 ft 466 kts 168°
2026-04-16 12:53 37.17830 117.05451 35090 ft 467 kts 168°
2026-04-16 12:54 37.11745 117.08303 35096 ft 467 kts 168°
2026-04-16 12:54 37.05653 117.11150 35098 ft 468 kts 168°
2026-04-16 12:55 36.99549 117.13997 35057 ft 468 kts 168°
2026-04-16 12:55 36.93449 117.16839 35095 ft 468 kts 169°
2026-04-16 12:56 36.87347 117.19658 35099 ft 466 kts 171°
2026-04-16 12:56 36.81141 117.21357 35107 ft 450 kts 182°
2026-04-16 12:57 36.74975 117.21619 35065 ft 440 kts 190°
2026-04-16 12:57 36.68865 117.21518 35095 ft 439 kts 190°
2026-04-16 12:58 36.62747 117.21449 35107 ft 440 kts 190°
2026-04-16 12:58 36.56628 117.21407 35115 ft 440 kts 190°
2026-04-16 12:59 36.50501 117.21362 35099 ft 439 kts 190°
2026-04-16 13:00 36.41287 117.21845 35116 ft 450 kts 181°
2026-04-16 13:00 36.35118 117.23685 35127 ft 461 kts 173°
2026-04-16 13:01 36.29030 117.26018 35099 ft 460 kts 173°
2026-04-16 13:01 36.22912 117.28340 35110 ft 459 kts 173°
2026-04-16 13:02 36.16807 117.30614 35114 ft 458 kts 174°
2026-04-16 13:02 36.10700 117.32875 35116 ft 458 kts 174°
2026-04-16 13:03 36.04656 117.35114 35089 ft 458 kts 174°
2026-04-16 13:03 35.98549 117.37374 35105 ft 459 kts 174°
2026-04-16 13:04 35.92437 117.39661 35112 ft 459 kts 173°
2026-04-16 13:04 35.87614 117.41472 35115 ft 460 kts 173°
2026-04-16 13:05 35.81498 117.43764 35094 ft 460 kts 174°
2026-04-16 13:05 35.75373 117.46052 35109 ft 460 kts 174°
2026-04-16 13:06 35.69254 117.48329 35108 ft 460 kts 173°
2026-04-16 13:06 35.63118 117.50613 35122 ft 461 kts 173°
2026-04-16 13:07 35.56974 117.52898 35119 ft 462 kts 173°
2026-04-16 13:07 35.50819 117.55182 35125 ft 462 kts 173°
2026-04-16 13:08 35.44661 117.57464 35125 ft 463 kts 173°
2026-04-16 13:08 35.38494 117.59743 35118 ft 463 kts 173°
2026-04-16 13:09 35.32367 117.62006 35094 ft 463 kts 173°
2026-04-16 13:09 35.26210 117.64276 35117 ft 462 kts 173°
2026-04-16 13:10 35.20049 117.66543 35114 ft 462 kts 173°
2026-04-16 13:10 35.13885 117.68809 35115 ft 463 kts 173°
2026-04-16 13:11 35.07715 117.71074 35096 ft 463 kts 173°
2026-04-16 13:11 35.01551 117.73325 35120 ft 463 kts 173°
2026-04-16 13:12 34.95367 117.75574 35119 ft 464 kts 173°
2026-04-16 13:12 34.89179 117.77826 35122 ft 464 kts 173°
2026-04-16 13:13 34.82977 117.80074 35080 ft 465 kts 173°
2026-04-16 13:13 34.76764 117.82285 35118 ft 468 kts 173°
2026-04-16 13:14 34.70411 117.84554 35124 ft 484 kts 173°
2026-04-16 13:14 34.63860 117.86904 35127 ft 496 kts 173°
2026-04-16 13:15 34.58311 117.88898 35112 ft 504 kts 172°
2026-04-16 13:15 34.50478 117.91712 35101 ft 505 kts 172°
2026-04-16 13:16 34.44838 117.93731 35115 ft 504 kts 172°
2026-04-16 13:16 34.38109 117.96131 35109 ft 504 kts 172°
2026-04-16 13:17 34.30331 117.99111 35100 ft 510 kts 166°
2026-04-16 13:17 34.23961 118.03085 35105 ft 522 kts 155°
2026-04-16 13:18 34.18981 118.07415 35087 ft 528 kts 151°
2026-04-16 13:18 34.13099 118.12723 35102 ft 527 kts 152°
2026-04-16 13:19 34.07213 118.17882 35109 ft 526 kts 152°
2026-04-16 13:19 34.01281 118.23051 35107 ft 526 kts 152°
2026-04-16 13:20 33.95347 118.28227 35110 ft 526 kts 152°
2026-04-16 13:20 33.89424 118.33411 35109 ft 527 kts 152°
2026-04-16 13:21 33.83489 118.38609 35090 ft 527 kts 152°
2026-04-16 13:21 33.77567 118.43784 35098 ft 526 kts 152°
2026-04-16 13:22 33.71658 118.48936 35095 ft 524 kts 152°
2026-04-16 13:22 33.65768 118.54063 35099 ft 522 kts 152°
2026-04-16 13:23 33.59890 118.59169 35098 ft 521 kts 152°
2026-04-16 13:23 33.54024 118.64257 35097 ft 520 kts 152°
2026-04-16 13:24 33.48484 118.69055 35089 ft 520 kts 153°
2026-04-16 13:24 33.42669 118.74087 35080 ft 520 kts 153°
2026-04-16 13:25 33.36810 118.79162 35093 ft 521 kts 153°
2026-04-16 13:25 33.30936 118.84244 35093 ft 521 kts 153°
2026-04-16 13:26 33.25054 118.89342 35087 ft 523 kts 153°
2026-04-16 13:26 33.19176 118.94453 35090 ft 523 kts 153°
2026-04-16 13:27 33.13337 118.99524 35048 ft 523 kts 154°
2026-04-16 13:27 33.07453 119.04627 35086 ft 523 kts 154°
2026-04-16 13:28 33.01554 119.09737 35082 ft 524 kts 154°
2026-04-16 13:28 32.95648 119.14847 35081 ft 525 kts 154°
2026-04-16 13:29 32.89734 119.19976 35085 ft 526 kts 153°
2026-04-16 13:29 32.83833 119.25131 35053 ft 526 kts 153°
2026-04-16 13:30 32.77944 119.30270 35073 ft 525 kts 154°
2026-04-16 13:30 32.72053 119.35394 35080 ft 524 kts 154°
2026-04-16 13:31 32.66168 119.40500 35086 ft 524 kts 154°
2026-04-16 13:31 32.60284 119.45598 35083 ft 524 kts 154°
2026-04-16 13:32 32.54399 119.50690 35049 ft 524 kts 154°
2026-04-16 13:32 32.48515 119.55774 35064 ft 523 kts 154°
2026-04-16 13:33 32.42630 119.60833 35081 ft 522 kts 154°
2026-04-16 13:33 32.36751 119.65845 35083 ft 523 kts 154°
2026-04-16 13:34 32.30846 119.70878 35085 ft 523 kts 154°
2026-04-16 13:34 32.24936 119.75912 35083 ft 523 kts 154°
2026-04-16 13:35 32.19087 119.80879 35077 ft 523 kts 155°
2026-04-16 13:35 32.13209 119.85858 35071 ft 523 kts 155°
2026-04-16 13:36 32.07288 119.90871 35080 ft 524 kts 155°
2026-04-16 13:36 32.01361 119.95902 35082 ft 526 kts 154°
2026-04-16 13:37 31.95445 120.01012 35081 ft 527 kts 154°
2026-04-16 13:37 31.89535 120.06119 35076 ft 527 kts 154°
2026-04-16 13:38 31.83610 120.11214 35081 ft 528 kts 154°
2026-04-16 13:38 31.77725 120.16418 35069 ft 536 kts 148°
2026-04-16 13:38 31.75078 120.19589 35074 ft 549 kts 139°
2026-04-16 13:39 31.72762 120.23200 35089 ft 560 kts 131°
2026-04-16 13:39 31.70834 120.27228 35083 ft 571 kts 123°
2026-04-16 13:39 31.69160 120.31464 35077 ft 573 kts 122°
2026-04-16 13:40 31.65902 120.40020 35050 ft 573 kts 121°
2026-04-16 13:40 31.62597 120.48507 35068 ft 571 kts 122°
2026-04-16 13:41 31.59222 120.56931 35077 ft 570 kts 122°
2026-04-16 13:41 31.55825 120.65331 35079 ft 570 kts 123°
2026-04-16 13:42 31.52432 120.73724 35075 ft 570 kts 122°
2026-04-16 13:42 31.49061 120.82061 35049 ft 569 kts 122°
2026-04-16 13:43 31.45668 120.90438 35080 ft 569 kts 122°
2026-04-16 13:43 31.42263 120.98821 35065 ft 569 kts 122°
2026-04-16 13:44 31.38858 121.07184 35080 ft 569 kts 123°
2026-04-16 13:44 31.35448 121.15544 35088 ft 569 kts 123°
2026-04-16 13:45 31.32228 121.23398 35088 ft 565 kts 124°
2026-04-16 13:45 31.30186 121.27073 35072 ft 545 kts 140°
2026-04-16 13:45 31.27515 121.29902 35090 ft 523 kts 156°
2026-04-16 13:45 31.24397 121.31946 35106 ft 507 kts 166°
2026-04-16 13:46 31.21129 121.33346 35103 ft 494 kts 175°
2026-04-16 13:46 31.17810 121.34009 35091 ft 475 kts 186°
2026-04-16 13:46 31.14527 121.34598 35085 ft 491 kts 172°
2026-04-16 13:46 31.11477 121.36352 35096 ft 523 kts 154°
2026-04-16 13:47 31.08781 121.39364 35075 ft 553 kts 135°
2026-04-16 13:47 31.06851 121.43347 35087 ft 577 kts 117°
2026-04-16 13:47 31.05913 121.47949 35095 ft 594 kts 99°
2026-04-16 13:47 31.06046 121.52800 35098 ft 603 kts 84°
2026-04-16 13:48 31.06814 121.57610 35093 ft 605 kts 79°
2026-04-16 13:48 31.07879 121.67303 35081 ft 599 kts 94°
2026-04-16 13:49 31.07043 121.76863 35106 ft 588 kts 105°
2026-04-16 13:49 31.05547 121.85724 35086 ft 586 kts 106°
2026-04-16 13:50 31.04089 121.95075 35091 ft 586 kts 104°
2026-04-16 13:50 31.02814 122.04454 35112 ft 586 kts 103°
2026-04-16 13:51 31.01552 122.13825 35092 ft 585 kts 103°
2026-04-16 13:51 31.00281 122.23200 35101 ft 586 kts 102°
2026-04-16 13:52 30.99875 122.32733 35114 ft 592 kts 91°
2026-04-16 13:52 31.00021 122.42334 35105 ft 592 kts 92°
2026-04-16 13:53 31.00017 122.51934 35108 ft 592 kts 93°
2026-04-16 13:53 31.00000 122.61527 35131 ft 592 kts 93°
2026-04-16 13:54 31.00001 122.71059 35092 ft 592 kts 93°
2026-04-16 13:54 31.00011 122.80646 35112 ft 591 kts 93°
2026-04-16 13:55 31.00010 122.90222 35095 ft 591 kts 93°
2026-04-16 13:55 30.99244 122.99686 35113 ft 584 kts 105°
2026-04-16 13:56 30.97166 123.08782 35100 ft 577 kts 116°
2026-04-16 13:56 30.94169 123.17430 35096 ft 575 kts 118°
2026-04-16 13:57 30.91142 123.26063 35101 ft 577 kts 117°
2026-04-16 13:57 30.88168 123.34749 35104 ft 577 kts 117°
2026-04-16 13:58 30.83730 123.47783 35103 ft 578 kts 117°
2026-04-16 13:58 30.80774 123.56406 35102 ft 577 kts 117°
2026-04-16 13:59 30.79039 123.60542 35091 ft 562 kts 130°
2026-04-16 13:59 30.76553 123.63943 35109 ft 542 kts 147°
2026-04-16 13:59 30.73525 123.66407 35117 ft 524 kts 161°
2026-04-16 13:59 30.70251 123.68132 35111 ft 512 kts 169°
2026-04-16 14:00 30.66873 123.69285 35090 ft 501 kts 178°
2026-04-16 14:00 30.63477 123.69619 35102 ft 480 kts 190°
2026-04-16 14:00 30.56776 123.69468 35111 ft 484 kts 190°
2026-04-16 14:01 30.50002 123.69383 35107 ft 489 kts 189°
2026-04-16 14:01 30.43178 123.69365 35082 ft 491 kts 189°
2026-04-16 14:02 30.36326 123.69372 35100 ft 492 kts 189°
2026-04-16 14:02 30.30634 123.69379 35103 ft 492 kts 189°
2026-04-16 14:03 30.22626 123.69384 35098 ft 491 kts 189°
2026-04-16 14:03 30.16949 123.69385 35092 ft 491 kts 189°
2026-04-16 14:04 30.10107 123.69385 35101 ft 491 kts 189°
2026-04-16 14:04 30.03275 123.69385 35100 ft 491 kts 189°
2026-04-16 14:05 29.96437 123.69385 35077 ft 492 kts 188°
2026-04-16 14:05 29.89593 123.69386 35100 ft 492 kts 188°
2026-04-16 14:06 29.82747 123.69387 35094 ft 492 kts 188°
2026-04-16 14:06 29.75894 123.69388 35094 ft 492 kts 188°
2026-04-16 14:07 29.69040 123.69388 35086 ft 492 kts 188°
2026-04-16 14:07 29.62196 123.69390 35095 ft 492 kts 188°
2026-04-16 14:08 29.55337 123.69390 35095 ft 493 kts 188°
2026-04-16 14:08 29.48483 123.69391 35079 ft 493 kts 188°
2026-04-16 14:09 29.41673 123.69392 35092 ft 492 kts 188°
2026-04-16 14:09 29.34776 123.69393 35101 ft 492 kts 188°
2026-04-16 14:10 29.27971 123.69394 35101 ft 492 kts 188°
2026-04-16 14:10 29.21113 123.69394 35100 ft 492 kts 188°
2026-04-16 14:11 29.14266 123.69395 35100 ft 492 kts 188°
2026-04-16 14:11 29.07418 123.69396 35100 ft 492 kts 188°
2026-04-16 14:12 29.00570 123.69396 35081 ft 492 kts 187°
2026-04-16 14:12 28.93738 123.69398 35098 ft 491 kts 187°
2026-04-16 14:13 28.86911 123.69399 35099 ft 490 kts 187°
2026-04-16 14:13 28.80100 123.69399 35100 ft 490 kts 187°
2026-04-16 14:14 28.73314 123.69259 35082 ft 478 kts 192°
2026-04-16 14:14 28.70096 123.68735 35090 ft 458 kts 198°
2026-04-16 14:14 28.67037 123.67960 35092 ft 444 kts 201°
2026-04-16 14:15 28.61289 123.65716 35101 ft 434 kts 207°
2026-04-16 14:15 28.55653 123.63232 35101 ft 434 kts 207°
2026-04-16 14:16 28.50007 123.60765 35095 ft 434 kts 207°
2026-04-16 14:16 28.44396 123.58330 35099 ft 434 kts 207°
2026-04-16 14:17 28.38749 123.55886 35098 ft 435 kts 207°
2026-04-16 14:17 28.33098 123.53444 35095 ft 435 kts 207°
2026-04-16 14:18 28.27441 123.51000 35083 ft 434 kts 206°
2026-04-16 14:18 28.21789 123.48563 35091 ft 435 kts 206°
2026-04-16 14:19 28.16138 123.46128 35090 ft 435 kts 206°
2026-04-16 14:19 28.10475 123.43691 35060 ft 435 kts 206°
2026-04-16 14:20 28.04803 123.41252 35080 ft 437 kts 206°
2026-04-16 14:20 27.99111 123.38807 35096 ft 439 kts 206°
2026-04-16 14:21 27.93390 123.36353 35097 ft 440 kts 206°
2026-04-16 14:21 27.87654 123.33897 35064 ft 441 kts 206°
2026-04-16 14:22 27.81903 123.31438 35087 ft 442 kts 206°
2026-04-16 14:22 27.76153 123.28981 35086 ft 442 kts 206°
2026-04-16 14:23 27.70395 123.26523 35085 ft 442 kts 206°
2026-04-16 14:23 27.64645 123.24071 35052 ft 442 kts 206°
2026-04-16 14:24 27.58890 123.21620 35073 ft 442 kts 206°
2026-04-16 14:24 27.53122 123.19165 35079 ft 443 kts 206°
2026-04-16 14:25 27.47355 123.16713 35081 ft 444 kts 206°
2026-04-16 14:25 27.41569 123.14258 35071 ft 444 kts 206°
2026-04-16 14:26 27.35821 123.11827 35080 ft 444 kts 206°
2026-04-16 14:26 27.30033 123.09380 35078 ft 445 kts 206°
2026-04-16 14:27 27.24240 123.06932 35075 ft 445 kts 206°
2026-04-16 14:27 27.19429 123.04902 35057 ft 445 kts 206°
2026-04-16 14:28 27.13632 123.02457 35075 ft 445 kts 206°
2026-04-16 14:28 27.08743 123.00205 35072 ft 441 kts 211°
2026-04-16 14:29 27.04023 122.97083 35072 ft 435 kts 219°
2026-04-16 14:29 26.99816 122.93707 35070 ft 435 kts 220°
2026-04-16 14:30 26.97197 122.91607 35070 ft 435 kts 220°
2026-04-16 14:30 26.92869 122.88155 35081 ft 435 kts 219°
2026-04-16 14:31 26.88852 122.84967 35071 ft 436 kts 219°
2026-04-16 14:31 26.83901 122.81047 35069 ft 436 kts 219°
2026-04-16 14:32 26.78951 122.77133 35073 ft 435 kts 219°
2026-04-16 14:32 26.74003 122.73224 35063 ft 435 kts 219°
2026-04-16 14:33 26.69087 122.69344 35070 ft 435 kts 219°
2026-04-16 14:33 26.64139 122.65440 35070 ft 436 kts 219°
2026-04-16 14:34 26.59185 122.61531 35076 ft 436 kts 219°
2026-04-16 14:34 26.54225 122.57621 35058 ft 437 kts 219°
2026-04-16 14:35 26.49259 122.53709 35069 ft 437 kts 219°
2026-04-16 14:35 26.44286 122.49797 35068 ft 437 kts 219°
2026-04-16 14:36 26.39305 122.45883 35068 ft 438 kts 219°
2026-04-16 14:36 26.34327 122.41975 35046 ft 438 kts 219°
2026-04-16 14:37 26.29349 122.38071 35058 ft 438 kts 219°
2026-04-16 14:37 26.24369 122.34169 35074 ft 437 kts 219°
2026-04-16 14:38 26.19390 122.30272 35065 ft 437 kts 219°
2026-04-16 14:38 26.14421 122.26388 35063 ft 436 kts 219°
2026-04-16 14:39 26.09435 122.22528 35057 ft 436 kts 219°
2026-04-16 14:39 26.04446 122.18701 35063 ft 436 kts 219°
2026-04-16 14:40 25.99469 122.14884 34943 ft 433 kts 219°
2026-04-16 14:40 25.96991 122.12982 34638 ft 434 kts 219°
2026-04-16 14:40 25.94494 122.11065 34260 ft 437 kts 219°
2026-04-16 14:41 25.91989 122.09141 33857 ft 440 kts 219°
2026-04-16 14:41 25.89459 122.07201 33402 ft 442 kts 219°
2026-04-16 14:41 25.86926 122.05260 33036 ft 442 kts 219°
2026-04-16 14:41 25.84394 122.03322 32680 ft 442 kts 219°
2026-04-16 14:42 25.81860 122.01382 32283 ft 443 kts 219°
2026-04-16 14:42 25.79321 121.99439 31871 ft 444 kts 219°
2026-04-16 14:42 25.76773 121.97490 31459 ft 445 kts 219°
2026-04-16 14:42 25.74225 121.95543 31036 ft 446 kts 219°
2026-04-16 14:43 25.71672 121.93594 30598 ft 446 kts 218°
2026-04-16 14:43 25.69105 121.91644 30156 ft 447 kts 218°
2026-04-16 14:43 25.66531 121.89692 29480 ft 451 kts 218°
2026-04-16 14:43 25.63933 121.87721 28794 ft 454 kts 218°
2026-04-16 14:44 25.61328 121.85727 28173 ft 456 kts 218°
2026-04-16 14:44 25.58721 121.83717 27573 ft 457 kts 218°
2026-04-16 14:44 25.56110 121.81699 26914 ft 458 kts 218°
2026-04-16 14:44 25.53491 121.79676 26236 ft 461 kts 218°
2026-04-16 14:45 25.50858 121.77644 25573 ft 462 kts 218°
2026-04-16 14:45 25.48218 121.75610 24899 ft 463 kts 218°
2026-04-16 14:45 25.45571 121.73574 24310 ft 462 kts 217°
2026-04-16 14:45 25.42938 121.71550 23871 ft 458 kts 217°
2026-04-16 14:46 25.41208 121.70222 23608 ft 455 kts 217°
2026-04-16 14:46 25.38618 121.68234 23133 ft 452 kts 217°
2026-04-16 14:46 25.35185 121.65600 22446 ft 448 kts 217°
2026-04-16 14:46 25.32662 121.63664 21971 ft 446 kts 217°
2026-04-16 14:47 25.30943 121.62345 21662 ft 444 kts 217°
2026-04-16 14:47 25.27591 121.59775 21065 ft 441 kts 217°
2026-04-16 14:47 25.25046 121.57824 20647 ft 439 kts 217°
2026-04-16 14:47 25.22569 121.55930 20195 ft 437 kts 217°
2026-04-16 14:48 25.20880 121.54636 19911 ft 437 kts 218°
2026-04-16 14:48 25.17744 121.51883 19383 ft 432 kts 227°
2026-04-16 14:48 25.16284 121.50329 19182 ft 429 kts 228°
2026-04-16 14:48 25.14330 121.47933 18881 ft 424 kts 231°
2026-04-16 14:49 25.12395 121.45426 18492 ft 423 kts 232°
2026-04-16 14:49 25.10499 121.42948 18091 ft 422 kts 232°
2026-04-16 14:49 25.08612 121.40478 17702 ft 420 kts 232°
2026-04-16 14:49 25.06729 121.38023 17384 ft 417 kts 232°
2026-04-16 14:50 25.04854 121.35585 17053 ft 415 kts 232°
2026-04-16 14:50 25.02989 121.33172 16721 ft 413 kts 232°
2026-04-16 14:50 25.01131 121.30771 16402 ft 411 kts 232°
2026-04-16 14:50 24.99280 121.28382 16112 ft 409 kts 232°
2026-04-16 14:51 24.97459 121.26033 15807 ft 407 kts 232°
2026-04-16 14:51 24.95622 121.23664 15510 ft 406 kts 232°
2026-04-16 14:51 24.93791 121.21303 15235 ft 404 kts 232°
2026-04-16 14:51 24.91971 121.18958 14950 ft 402 kts 232°
2026-04-16 14:53 24.78003 121.04358 13219 ft 397 kts 213°
2026-04-16 14:53 24.75611 121.02854 13012 ft 395 kts 212°
2026-04-16 14:54 24.73228 121.01356 12781 ft 394 kts 212°
2026-04-16 14:54 24.70855 120.99859 12577 ft 393 kts 213°
2026-04-16 14:54 24.68487 120.98361 12360 ft 391 kts 213°
2026-04-16 14:54 24.66134 120.96868 12157 ft 390 kts 213°
2026-04-16 14:55 24.63790 120.95380 11972 ft 388 kts 213°
2026-04-16 14:55 24.61463 120.93901 11848 ft 385 kts 213°
2026-04-16 14:55 24.59156 120.92435 11678 ft 383 kts 213°
2026-04-16 14:55 24.56843 120.90964 11417 ft 385 kts 212°
2026-04-16 14:56 24.54519 120.89487 11191 ft 386 kts 212°
2026-04-16 14:56 24.52204 120.88017 11048 ft 384 kts 212°
2026-04-16 14:56 24.49894 120.86552 10916 ft 382 kts 212°
2026-04-16 14:56 24.47601 120.85097 10776 ft 381 kts 212°
2026-04-16 14:57 24.45306 120.83645 10601 ft 380 kts 212°
2026-04-16 14:57 24.43018 120.82195 10472 ft 379 kts 212°
2026-04-16 14:57 24.40742 120.80753 10342 ft 378 kts 212°
2026-04-16 14:57 24.38467 120.79320 10209 ft 377 kts 212°
2026-04-16 14:58 24.36170 120.77926 10054 ft 376 kts 211°
2026-04-16 14:58 24.31592 120.75201 9660 ft 378 kts 210°
2026-04-16 14:58 24.29276 120.73825 9524 ft 377 kts 210°
2026-04-16 14:59 24.26979 120.72457 9425 ft 375 kts 210°
2026-04-16 14:59 24.24695 120.71095 9387 ft 371 kts 210°
2026-04-16 14:59 24.22437 120.69746 9353 ft 368 kts 210°
2026-04-16 14:59 24.20199 120.68408 9340 ft 364 kts 210°
2026-04-16 15:00 24.17981 120.67083 9317 ft 361 kts 211°
2026-04-16 15:00 24.15840 120.65806 9197 ft 335 kts 211°
2026-04-16 15:00 24.13909 120.64657 9135 ft 310 kts 211°
2026-04-16 15:00 24.12057 120.63553 9082 ft 297 kts 211°
2026-04-16 15:01 24.10283 120.62493 9058 ft 284 kts 211°
2026-04-16 15:01 24.08557 120.61461 9076 ft 282 kts 211°
2026-04-16 15:01 24.06825 120.60426 9051 ft 283 kts 210°
2026-04-16 15:01 24.05099 120.59395 8861 ft 283 kts 210°
2026-04-16 15:02 24.03377 120.58368 8601 ft 281 kts 210°
2026-04-16 15:02 24.01664 120.57346 8286 ft 280 kts 210°
2026-04-16 15:02 23.99954 120.56327 7959 ft 279 kts 210°
2026-04-16 15:02 23.98255 120.55315 7656 ft 278 kts 210°
2026-04-16 15:03 23.96561 120.54306 7356 ft 276 kts 210°
2026-04-16 15:03 23.94878 120.53304 7062 ft 274 kts 210°
2026-04-16 15:03 23.93207 120.52309 6773 ft 273 kts 210°
2026-04-16 15:03 23.91544 120.51319 6476 ft 271 kts 210°
2026-04-16 15:04 23.89888 120.50334 6155 ft 270 kts 209°
2026-04-16 15:04 23.88237 120.49352 5811 ft 270 kts 209°
2026-04-16 15:04 23.86586 120.48371 5500 ft 270 kts 208°
2026-04-16 15:04 23.84923 120.47408 5102 ft 272 kts 207°
2026-04-16 15:05 23.83243 120.46461 4789 ft 271 kts 207°
2026-04-16 15:05 23.81561 120.45517 4486 ft 270 kts 207°
2026-04-16 15:05 23.79898 120.44584 4216 ft 268 kts 207°
2026-04-16 15:05 23.78266 120.43668 4130 ft 260 kts 207°
2026-04-16 15:06 23.76646 120.42757 4087 ft 264 kts 207°
2026-04-16 15:06 23.75022 120.41844 4080 ft 268 kts 207°
2026-04-16 15:06 23.73358 120.40908 4073 ft 269 kts 207°
2026-04-16 15:06 23.71697 120.39974 4069 ft 268 kts 207°
2026-04-16 15:07 23.70044 120.39045 4058 ft 266 kts 207°
2026-04-16 15:07 23.68403 120.38121 4051 ft 265 kts 207°
2026-04-16 15:07 23.66769 120.37202 4056 ft 264 kts 207°
2026-04-16 15:07 23.65142 120.36287 4055 ft 263 kts 207°
2026-04-16 15:08 23.63518 120.35374 4059 ft 263 kts 207°
2026-04-16 15:08 23.61893 120.34461 4063 ft 263 kts 207°
2026-04-16 15:08 23.60262 120.33544 4064 ft 263 kts 207°
2026-04-16 15:08 23.58630 120.32627 4054 ft 265 kts 207°
2026-04-16 15:09 23.56990 120.31707 4066 ft 265 kts 207°
2026-04-16 15:09 23.55345 120.30783 4068 ft 266 kts 207°
2026-04-16 15:09 23.53698 120.29859 4067 ft 267 kts 207°
2026-04-16 15:09 23.52043 120.28930 4062 ft 267 kts 207°
2026-04-16 15:10 23.50388 120.28002 4057 ft 268 kts 207°
2026-04-16 15:10 23.48731 120.27072 4051 ft 269 kts 207°
2026-04-16 15:10 23.47067 120.26139 4045 ft 269 kts 207°
2026-04-16 15:10 23.45402 120.25206 4048 ft 269 kts 207°
2026-04-16 15:11 23.43743 120.24276 4056 ft 269 kts 207°
2026-04-16 15:11 23.42080 120.23344 4042 ft 268 kts 207°
2026-04-16 15:11 23.40447 120.22429 4047 ft 268 kts 207°
2026-04-16 15:11 23.38775 120.21494 4054 ft 267 kts 207°
2026-04-16 15:12 23.37143 120.20581 4053 ft 266 kts 207°
2026-04-16 15:12 23.35464 120.19642 4054 ft 269 kts 207°
2026-04-16 15:12 23.33748 120.18852 4056 ft 272 kts 198°
2026-04-16 15:12 23.31929 120.18287 4056 ft 272 kts 195°
2026-04-16 15:13 23.30100 120.17743 4057 ft 272 kts 195°
2026-04-16 15:13 23.28277 120.17202 4049 ft 272 kts 195°
2026-04-16 15:13 23.26450 120.16658 4043 ft 272 kts 195°
2026-04-16 15:13 23.24627 120.16114 4042 ft 272 kts 195°
2026-04-16 15:14 23.22804 120.15568 4044 ft 272 kts 195°
2026-04-16 15:14 23.20984 120.15022 4041 ft 271 kts 195°
2026-04-16 15:14 23.19165 120.14475 4058 ft 271 kts 195°
2026-04-16 15:14 23.17346 120.13928 4058 ft 271 kts 195°
2026-04-16 15:15 23.15531 120.13382 4062 ft 271 kts 195°
2026-04-16 15:15 23.13714 120.12836 4056 ft 271 kts 195°
2026-04-16 15:15 23.11896 120.12289 4063 ft 271 kts 195°
2026-04-16 15:15 23.10075 120.11741 4066 ft 271 kts 196°
2026-04-16 15:16 23.08258 120.11195 4066 ft 271 kts 196°
2026-04-16 15:16 23.06437 120.10647 4075 ft 271 kts 196°
2026-04-16 15:16 23.04616 120.10099 4069 ft 272 kts 196°
2026-04-16 15:16 23.02795 120.09552 4064 ft 272 kts 196°
2026-04-16 15:17 23.00976 120.09005 4062 ft 271 kts 196°
2026-04-16 15:17 22.99157 120.08459 4060 ft 270 kts 196°
2026-04-16 15:17 22.97349 120.07916 4064 ft 270 kts 196°
2026-04-16 15:17 22.95537 120.07372 4069 ft 270 kts 196°
2026-04-16 15:18 22.93727 120.06829 4066 ft 270 kts 196°
2026-04-16 15:18 22.91917 120.06286 4069 ft 270 kts 196°
2026-04-16 15:18 22.90131 120.05751 4070 ft 270 kts 196°
2026-04-16 15:18 22.88307 120.05406 4044 ft 267 kts 176°
2026-04-16 15:19 22.86508 120.05948 4073 ft 272 kts 158°
2026-04-16 15:19 22.84744 120.06757 4078 ft 277 kts 158°
2026-04-16 15:19 22.82968 120.07560 4058 ft 277 kts 158°
2026-04-16 15:19 22.81191 120.08361 4068 ft 277 kts 158°
2026-04-16 15:20 22.79411 120.09166 4055 ft 277 kts 158°
2026-04-16 15:20 22.77632 120.09963 4053 ft 277 kts 158°
2026-04-16 15:20 22.75851 120.10762 4056 ft 278 kts 158°
2026-04-16 15:20 22.74063 120.11567 4048 ft 279 kts 158°
2026-04-16 15:21 22.72270 120.12371 4062 ft 279 kts 158°
2026-04-16 15:21 22.70474 120.13174 4039 ft 280 kts 158°
2026-04-16 15:21 22.68677 120.13978 4032 ft 280 kts 157°
2026-04-16 15:21 22.66874 120.14782 4042 ft 280 kts 157°
2026-04-16 15:22 22.65075 120.15585 4027 ft 280 kts 157°
2026-04-16 15:22 22.63277 120.16388 4040 ft 280 kts 157°
2026-04-16 15:22 22.61483 120.17190 4036 ft 278 kts 158°
2026-04-16 15:22 22.59693 120.17988 4041 ft 279 kts 158°
2026-04-16 15:23 22.57896 120.18792 4035 ft 279 kts 157°
2026-04-16 15:23 22.56100 120.19593 4043 ft 279 kts 158°
2026-04-16 15:23 22.54303 120.20392 4041 ft 280 kts 157°
2026-04-16 15:23 22.52533 120.21234 4011 ft 275 kts 149°
2026-04-16 15:24 22.51137 120.22635 4056 ft 278 kts 127°
2026-04-16 15:24 22.49926 120.24319 4020 ft 285 kts 128°
2026-04-16 15:24 22.48677 120.25985 4010 ft 284 kts 128°
2026-04-16 15:24 22.47436 120.27620 4013 ft 279 kts 128°
2026-04-16 15:25 22.46207 120.29241 4009 ft 278 kts 128°
2026-04-16 15:25 22.45040 120.30878 4003 ft 278 kts 118°
2026-04-16 15:25 22.44485 120.32854 4023 ft 275 kts 94°
2026-04-16 15:25 22.44289 120.34938 4027 ft 282 kts 95°
2026-04-16 15:26 22.44049 120.37037 4021 ft 281 kts 95°
2026-04-16 15:26 22.43800 120.39125 4012 ft 278 kts 95°
2026-04-16 15:26 22.43554 120.41189 4009 ft 276 kts 96°
2026-04-16 15:26 22.43522 120.43223 4013 ft 270 kts 75°
2026-04-16 15:27 22.44347 120.45014 4028 ft 268 kts 46°
2026-04-16 15:27 22.45760 120.46266 3998 ft 256 kts 29°
2026-04-16 15:27 22.47300 120.47268 4021 ft 260 kts 30°
2026-04-16 15:27 22.48838 120.48281 3880 ft 257 kts 30°
2026-04-16 15:28 22.50369 120.49297 3489 ft 260 kts 30°
2026-04-16 15:28 22.51918 120.50327 3100 ft 262 kts 30°
2026-04-16 15:28 22.53555 120.51083 2669 ft 257 kts
2026-04-16 15:28 22.55265 120.50895 2210 ft 242 kts 337°
2026-04-16 15:29 22.56516 120.49819 1791 ft 222 kts 303°
2026-04-16 15:29 22.57029 120.48342 1665 ft 205 kts 284°
2026-04-16 15:29 22.57265 120.46820 1680 ft 204 kts 280°
2026-04-16 15:29 22.57399 120.45343 1666 ft 186 kts 276°
2026-04-16 15:30 22.57438 120.44011 1465 ft 170 kts 274°
2026-04-16 15:30 22.57471 120.42809 1282 ft 149 kts 275°
2026-04-16 15:30 22.57507 120.41660 1101 ft 155 kts 275°
2026-04-16 15:30 22.57540 120.40521 877 ft 148 kts 276°
2026-04-16 15:31 22.57571 120.39453 673 ft 135 kts 275°
2026-04-16 15:31 22.57601 120.38424 519 ft 142 kts 273°
2026-04-16 15:31 22.57637 120.37346 292 ft 141 kts 274°
2026-04-16 15:31 22.57657 120.36315 114 ft 135 kts 275°
2026-04-16 15:32 22.57695 120.35303 44 ft 122 kts 275°
2026-04-16 15:32 22.57723 120.34540 43 ft 80 kts 272°
2026-04-16 15:32 22.57729 120.34197 44 ft 32 kts 259°
2026-04-16 15:32 22.57706 120.34153 43 ft 4 kts 223°
2026-04-16 15:33 22.57666 120.34132 43 ft 6 kts 195°
2026-04-16 15:33 22.57624 120.34127 43 ft 7 kts 184°
2026-04-16 15:33 22.57590 120.34125 43 ft 8 kts 182°
2026-04-16 15:33 22.57530 120.34123 43 ft 9 kts 182°
2026-04-16 15:34 22.57460 120.34122 43 ft 11 kts 173°
2026-04-16 15:34 22.57410 120.34175 43 ft 11 kts 105°
2026-04-16 15:34 22.57409 120.34230 43 ft 5 kts 75°
2026-04-16 15:34 22.57433 120.34256 43 ft 6 kts 24°
2026-04-16 15:35 22.57473 120.34260 43 ft 3 kts
2026-04-16 15:35 22.57474 120.34260 43 ft 0 kts